Terminal Aerodrome Forecast
Issued by NWS

Home | Current Version | Previous Version | Graphics & Text | Print | Product List | Glossary On
Versions: 1 2 3 4 5 6 7 8 9 10 11 12 13 14 15 16 17 18 19 20 21 22 23 24 25 26 27 28
520
FTUS43 KLOT 221125
TAFDPA
TAF
KDPA 221125Z 2212/2312 21010KT P6SM VCSH BKN130
     FM221400 22015G24KT P6SM SCT040 BKN200
     FM230100 21012KT P6SM SCT020 BKN050
     FM230600 23012KT P6SM -SHRA SCT010 BKN020 BKN050
      TEMPO 2306/2309 4SM -TSRA BKN015CB BKN050=

USA.gov is the U.S. government's official web portal to all federal, state and local government web resources and services.